When you browse on this site, cookies collect data to enhance your experience and personalize the content and advertising you see.
Visit our Privacy Policy to learn more. By continuing to use the site, you agree to this use of cookies and data.
  • In Deutschland
  • Länderverzeichnis
  • Für 7 Tage
  • Wassertemperatur
  • Wetterkarte
  • Widgets
  • user-avatar
    Anmelden

    Stündliche Wetter Idshewan

    Heute, 18 Januar, Samstag

    Zeit Temperatur Niederschläge Wind Luftdruck Luftfeuchtigkeit
    00:00 -3°C° 0 mm 2 m/S 694 mmHg 60%
    01:00 -4°C° 0 mm 2 m/S 694 mmHg 58%
    02:00 -4°C° 0 mm 2 m/S 694 mmHg 57%
    03:00 -4°C° 0 mm 2 m/S 694 mmHg 53%
    04:00 -4°C° 0 mm 2 m/S 694 mmHg 52%
    05:00 -4°C° 0 mm 2 m/S 693 mmHg 50%
    06:00 -4°C° 0 mm 2 m/S 693 mmHg 49%
    07:00 -3°C° 0 mm 2 m/S 694 mmHg 48%
    08:00 -2°C° 0 mm 2 m/S 694 mmHg 46%
    09:00 +1°C° 0 mm 1 m/S 694 mmHg 44%
    10:00 +2°C° 0 mm 1 m/S 694 mmHg 42%
    11:00 +3°C° 0 mm 1 m/S 694 mmHg 40%
    12:00 +5°C° 0 mm 1 m/S 693 mmHg 38%
    13:00 +5°C° 0 mm 1 m/S 693 mmHg 40%
    14:00 +5°C° 0 mm 1 m/S 693 mmHg 42%
    15:00 +4°C° 0 mm 1 m/S 693 mmHg 45%
    16:00 +3°C° 0 mm 1 m/S 693 mmHg 48%
    17:00 +2°C° 0 mm 1 m/S 693 mmHg 52%
    18:00 0°C° 0 mm 0 m/S 693 mmHg 56%
    19:00 -1°C° 0 mm 0 m/S 693 mmHg 56%
    20:00 -1°C° 0 mm 0 m/S 694 mmHg 56%
    21:00 -1°C° 0 mm 0 m/S 694 mmHg 56%
    22:00 -1°C° 0 mm 0 m/S 694 mmHg 57%
    23:00 -2°C° 0 mm 0 m/S 694 mmHg 58%

    Morgen, 19 Januar, Sonntag

    Zeit Temperatur Niederschläge Wind Luftdruck Luftfeuchtigkeit
    00:00 -2°C° 0 mm 0 m/S 694 mmHg 60%
    01:00 -2°C° 0 mm 0 m/S 694 mmHg 61%
    02:00 -3°C° 0 mm 0 m/S 694 mmHg 62%
    03:00 -3°C° 0 mm 0 m/S 694 mmHg 64%
    04:00 -3°C° 0 mm 0 m/S 694 mmHg 66%
    05:00 -3°C° 0 mm 0 m/S 694 mmHg 68%
    06:00 -3°C° 0 mm 0 m/S 694 mmHg 69%
    07:00 -2°C° 0 mm 0 m/S 694 mmHg 70%
    08:00 -2°C° 0 mm 0 m/S 695 mmHg 70%
    09:00 -1°C° 0 mm 0 m/S 695 mmHg 70%
    10:00 0°C° 0 mm 1 m/S 695 mmHg 73%
    11:00 +1°C° 0 mm 1 m/S 695 mmHg 75%
    12:00 -1°C° 0 mm 2 m/S 694 mmHg 78%
    13:00 -1°C° 0.2 mm 2 m/S 694 mmHg 82%
    14:00 -1°C° 0.2 mm 2 m/S 694 mmHg 86%
    15:00 -1°C° 0.2 mm 2 m/S 694 mmHg 90%
    16:00 +1°C° 0.1 mm 1 m/S 695 mmHg 92%
    17:00 0°C° 0.1 mm 1 m/S 695 mmHg 94%
    18:00 0°C° 0.1 mm 1 m/S 695 mmHg 96%
    19:00 0°C° 0.1 mm 1 m/S 696 mmHg 95%
    20:00 0°C° 0.1 mm 1 m/S 696 mmHg 95%
    21:00 0°C° 0.1 mm 1 m/S 696 mmHg 95%
    22:00 -2°C° 0.1 mm 0 m/S 697 mmHg 95%
    23:00 -2°C° 0.1 mm 0 m/S 697 mmHg 95%

    übermorgen, 20 Januar, Montag

    Zeit Temperatur Niederschläge Wind Luftdruck Luftfeuchtigkeit
    00:00 -2°C° 0.1 mm 0 m/S 697 mmHg 96%
    01:00 -2°C° 0.1 mm 0 m/S 697 mmHg 96%
    02:00 -2°C° 0.1 mm 0 m/S 697 mmHg 96%
    03:00 -2°C° 0.1 mm 0 m/S 697 mmHg 96%
    04:00 -2°C° 0 mm 0 m/S 697 mmHg 95%
    05:00 -3°C° 0 mm 0 m/S 697 mmHg 95%
    06:00 -3°C° 0 mm 0 m/S 697 mmHg 94%
    07:00 -2°C° 0 mm 0 m/S 697 mmHg 91%
    08:00 -2°C° 0 mm 0 m/S 698 mmHg 87%
    09:00 -1°C° 0 mm 0 m/S 698 mmHg 84%
    10:00 0°C° 0 mm 0 m/S 697 mmHg 84%
    11:00 +1°C° 0 mm 1 m/S 697 mmHg 83%
    12:00 +2°C° 0 mm 1 m/S 697 mmHg 83%
    13:00 +2°C° 0 mm 1 m/S 697 mmHg 83%
    14:00 +2°C° 0 mm 1 m/S 696 mmHg 84%
    15:00 +3°C° 0 mm 1 m/S 696 mmHg 85%
    16:00 +2°C° 0 mm 1 m/S 696 mmHg 88%
    17:00 0°C° 0 mm 0 m/S 696 mmHg 90%
    18:00 -1°C° 0 mm 0 m/S 696 mmHg 93%
    19:00 -1°C° 0 mm 0 m/S 697 mmHg 92%
    20:00 -1°C° 0 mm 0 m/S 697 mmHg 91%
    21:00 -2°C° 0 mm 0 m/S 697 mmHg 91%
    22:00 -2°C° 0 mm 0 m/S 697 mmHg 90%
    23:00 -2°C° 0 mm 0 m/S 696 mmHg 90%

    21 Januar, Dienstag

    Zeit Temperatur Niederschläge Wind Luftdruck Luftfeuchtigkeit
    00:00 -2°C° 0 mm 0 m/S 696 mmHg 89%
    01:00 -1°C° 0 mm 1 m/S 696 mmHg 89%
    02:00 -1°C° 0 mm 1 m/S 696 mmHg 88%
    03:00 -2°C° 0 mm 1 m/S 696 mmHg 87%
    04:00 -2°C° 0 mm 1 m/S 696 mmHg 85%
    05:00 -2°C° 0 mm 1 m/S 695 mmHg 83%
    06:00 -2°C° 0 mm 1 m/S 695 mmHg 81%
    07:00 -1°C° 0 mm 1 m/S 696 mmHg 78%
    08:00 0°C° 0 mm 1 m/S 696 mmHg 75%
    09:00 +1°C° 0 mm 1 m/S 696 mmHg 73%
    10:00 +2°C° 0 mm 1 m/S 696 mmHg 71%
    11:00 +3°C° 0 mm 1 m/S 696 mmHg 69%
    12:00 +4°C° 0 mm 1 m/S 695 mmHg 67%
    13:00 +4°C° 0 mm 1 m/S 695 mmHg 67%
    14:00 +4°C° 0 mm 1 m/S 695 mmHg 68%
    15:00 +4°C° 0 mm 1 m/S 694 mmHg 69%
    16:00 +3°C° 0 mm 1 m/S 695 mmHg 73%
    17:00 +2°C° 0 mm 1 m/S 695 mmHg 77%
    18:00 +1°C° 0 mm 1 m/S 695 mmHg 82%
    19:00 +1°C° 0 mm 1 m/S 695 mmHg 81%
    20:00 0°C° 0 mm 1 m/S 695 mmHg 80%
    21:00 0°C° 0 mm 1 m/S 696 mmHg 79%
    22:00 0°C° 0 mm 1 m/S 696 mmHg 80%
    23:00 0°C° 0 mm 1 m/S 696 mmHg 80%

    22 Januar, Mittwoch

    Zeit Temperatur Niederschläge Wind Luftdruck Luftfeuchtigkeit
    00:00 -1°C° 0 mm 1 m/S 696 mmHg 80%
    01:00 -1°C° 0 mm 1 m/S 696 mmHg 80%
    02:00 -1°C° 0 mm 1 m/S 696 mmHg 79%
    03:00 -1°C° 0 mm 1 m/S 696 mmHg 78%
    04:00 -2°C° 0 mm 1 m/S 696 mmHg 77%
    05:00 -4°C° 0 mm 2 m/S 696 mmHg 76%
    06:00 -4°C° 0 mm 2 m/S 696 mmHg 74%
    07:00 -3°C° 0 mm 2 m/S 696 mmHg 71%
    08:00 -2°C° 0 mm 2 m/S 696 mmHg 69%
    09:00 +1°C° 0 mm 1 m/S 696 mmHg 66%
    10:00 +2°C° 0 mm 1 m/S 696 mmHg 62%
    11:00 +3°C° 0 mm 1 m/S 695 mmHg 59%
    12:00 +4°C° 0 mm 1 m/S 695 mmHg 55%
    13:00 +4°C° 0 mm 1 m/S 694 mmHg 55%
    14:00 +4°C° 0 mm 1 m/S 693 mmHg 55%
    15:00 +4°C° 0 mm 1 m/S 693 mmHg 55%
    16:00 +3°C° 0 mm 1 m/S 693 mmHg 60%
    17:00 +1°C° 0 mm 1 m/S 692 mmHg 65%
    18:00 0°C° 0 mm 1 m/S 692 mmHg 70%
    19:00 -2°C° 0 mm 2 m/S 692 mmHg 67%
    20:00 -2°C° 0 mm 2 m/S 692 mmHg 64%
    21:00 -3°C° 0 mm 2 m/S 692 mmHg 61%
    22:00 -4°C° 0 mm 3 m/S 691 mmHg 61%
    23:00 -4°C° 0 mm 3 m/S 691 mmHg 60%

    23 Januar, Donnerstag

    Zeit Temperatur Niederschläge Wind Luftdruck Luftfeuchtigkeit
    00:00 -4°C° 0 mm 3 m/S 691 mmHg 60%
    01:00 -4°C° 0 mm 3 m/S 690 mmHg 61%
    02:00 -2°C° 0 mm 3 m/S 690 mmHg 61%
    03:00 -2°C° 0 mm 3 m/S 690 mmHg 62%
    04:00 -2°C° 0 mm 3 m/S 689 mmHg 62%
    05:00 -4°C° 0 mm 3 m/S 689 mmHg 63%
    06:00 -4°C° 0 mm 3 m/S 689 mmHg 63%
    07:00 -2°C° 0 mm 3 m/S 689 mmHg 61%
    08:00 -1°C° 0 mm 3 m/S 689 mmHg 60%
    09:00 0°C° 0 mm 3 m/S 689 mmHg 58%
    10:00 +1°C° 0 mm 3 m/S 689 mmHg 56%
    11:00 +2°C° 0 mm 3 m/S 688 mmHg 54%
    12:00 +3°C° 0 mm 3 m/S 688 mmHg 52%
    13:00 +3°C° 0 mm 3 m/S 687 mmHg 53%
    14:00 +3°C° 0 mm 3 m/S 687 mmHg 54%
    15:00 +2°C° 0 mm 3 m/S 686 mmHg 55%
    16:00 +1°C° 0 mm 3 m/S 686 mmHg 57%
    17:00 -1°C° 0 mm 4 m/S 687 mmHg 59%
    18:00 -2°C° 0 mm 4 m/S 687 mmHg 61%
    19:00 -2°C° 0 mm 4 m/S 687 mmHg 61%
    20:00 -3°C° 0 mm 4 m/S 687 mmHg 62%
    21:00 -3°C° 0 mm 4 m/S 687 mmHg 62%
    22:00 -3°C° 0 mm 4 m/S 687 mmHg 63%
    23:00 -2°C° 0 mm 3 m/S 688 mmHg 65%
    Mehr zeigen